Regional Weather Roundup
Issued by NWS

Home | Current Version | Previous Version | Text Only | Print | Product List | Glossary On
Versions: 1 2 3 4 5 6 7 8 9 10 11 12 13 14 15 16 17 18 19 20 21 22 23 24 25 26 27
000
ASUS45 KPSR 172010
RWRAZ

ARIZONA HOURLY REGIONAL WEATHER ROUNDUP
NATIONAL WEATHER SERVICE PHOENIX AZ
100 PM MST WED JAN 17 2018

NOTE: FAIR INDICATES FEW OR NO CLOUDS BELOW 12,000 FEET WITH NO
SIGNIFICANT WEATHER AND/OR OBSTRUCTIONS TO VISIBILITY.

AZZ001>003-036-172100-
NORTHWEST ARIZONA

CITY           SKY/WX    TMP DP  RH WIND       PRES   REMARKS
BULLHEAD CITY  SUNNY     68  32  26 N25       30.20F
KINGMAN        SUNNY     63  31  30 N6        30.26F
$$

AZZ004>008-015-016-018-172100-
NORTH CENTRAL ARIZONA

CITY           SKY/WX    TMP DP  RH WIND       PRES   REMARKS
GRAND CANYON   SUNNY     53  21  28 NE8       30.34F
WILLIAMS       SUNNY     54  21  28 N9        30.31F
PRESCOTT       SUNNY     56  26  31 N6        30.28F
FLAGSTAFF      SUNNY     48  18  30 NE12G17   30.33F
PAYSON         SUNNY     54  19  26 VRB5      30.27F
PAGE           SUNNY     48  21  34 VRB3      30.35F
$$

AZZ009>014-017-172100-
NORTHEAST ARIZONA

CITY           SKY/WX    TMP DP  RH WIND       PRES   REMARKS
WINSLOW        SUNNY     49  19  30 W7        30.34F
SAINT JOHNS    SUNNY     47  22  37 N3        30.31F
WINDOW ROCK    SUNNY     49  18  29 S6        30.30F
SHOW LOW       SUNNY     46  21  36 N10       30.34F
$$

AZZ540-542>544-546-548-172100-
GREATER PHOENIX AREA

CITY           SKY/WX    TMP DP  RH WIND       PRES   REMARKS
PHOENIX        MOSUNNY   68  26  20 E13       30.17F
BUCKEYE        SUNNY     66  23  19 E10G16    30.20F
GLENDALE       MOSUNNY   66  25  20 E7        30.20F
LUKE AFB       SUNNY     66  24  20 E3        30.17F
DEER VALLEY    SUNNY     65  24  21 S6        30.18F
SCOTTSDALE     SUNNY     66  26  22 VRB3      30.19F
MESA-FALCON    MOSUNNY   66  23  19 E3        30.19F
MESA-GATEWAY   MOSUNNY   64  21  19 W5        30.20F
CHANDLER       SUNNY     66  21  18 NE5       30.19F
$$

AZZ539-553-172100-
SOUTHWEST MARICOPA COUNTY AND PINAL COUNTY

CITY           SKY/WX    TMP DP  RH WIND       PRES   REMARKS
CASA GRANDE    NOT AVBL
GILA BEND      MOSUNNY   66  20  17 E14       30.17F
$$

AZZ503-504-507>509-172100-
SOUTHEAST ARIZONA

CITY           SKY/WX    TMP DP  RH WIND       PRES   REMARKS
TUCSON         SUNNY     65  20  17 E10G20    30.20F
DAVIS-MONTHAN  SUNNY     67  20  17 N3        30.18F
RYAN FIELD     SUNNY     63  21  20 E12G21    30.20F
NOGALES        SUNNY     68  21  16 E5        30.18F
SIERRA VISTA   SUNNY     53  18  25 E3        30.26F
DOUGLAS        SUNNY     51  20  29 NW7       30.26F
SAFFORD        SUNNY     48  14  25 S8        30.31F
$$

AZZ532-172100-
SOUTHWEST ARIZONA

CITY           SKY/WX    TMP DP  RH WIND       PRES   REMARKS
YUMA           MOSUNNY   72  28  19 NE12      30.17F
$$

CAZ041-043-047-048-061-525>527-560>570-172100-
SOUTHERN CALIFORNIA

CITY           SKY/WX    TMP DP  RH WIND       PRES   REMARKS
DOWNTOWN L.A.  PTSUNNY   76  37  24 CALM      30.14F
L.A. AIRPORT   PTSUNNY   68  56  65 W12       30.15F
SAN DIEGO      PTSUNNY   69  49  48 N6        30.14F
BURBANK        PTSUNNY   74  39  28 W5        30.15F
ONTARIO        PTSUNNY   73  39  29 W7        30.15F
RIVERSIDE      PTSUNNY   77  37  23 NE6       30.14F
PALM SPRINGS   SUNNY     75  38  26 E6        30.21F
EL CENTRO NAS  MOSUNNY   74  36  25 E3        30.20F
IMPERIAL       SUNNY     74  36  25 CALM      30.17F
BLYTHE         SUNNY     69  37  30 VRB3      30.20F
NEEDLES        SUNNY     69  37  30 N9        30.22F
$$

NVZ020-UTZ003-172100-
SOUTHERN NEVADA-UTAH

CITY           SKY/WX    TMP DP  RH WIND       PRES   REMARKS
LAS VEGAS      MOSUNNY   63  33  32 CALM      30.26F
SALT LAKE CITY PTSUNNY   51  27  39 CALM      30.37F
$$

NMZ009-TXZ055-172100-
NEW MEXICO-WEST TEXAS

CITY           SKY/WX    TMP DP  RH WIND       PRES   REMARKS
ALBUQUERQUE    PTSUNNY   36  14  40 SW5       30.34F WCI  32
EL PASO        PTSUNNY   40  14  34 N6        30.37F
$$


........................KEY........................
SKY/WX - SKY CONDITION/WEATHER
TMP    - TEMPERATURE IN FAHRENHEIT
DP     - DEW POINT IN FAHRENHEIT
RH     - RELATIVE HUMIDITY IN PERCENT
WIND   - DIRECTION AND SPEED IN MILES PER HOUR (MPH)
VRB    - VARIABLE WIND DIRECTION
PRES   - MEAN SEA LEVEL PRESSURE IN INCHES OF MERCURY
         F - FALLING PRESSURE   R - RISING PRESSURE
         S - STEADY PRESSURE
VSB    - VISIBILITY IN MILES
HX     - HEAT INDEX IN FAHRENHEIT
WCI    - WIND CHILL INDEX IN FAHRENHEIT
TC     - TEMPERATURE IN CELSIUS WHICH IS ALSO KNOWN AS
         TEMPERATURE IN CENTIGRADE
AFB    - AIR FORCE BASE
         LUKE AFB IS LUKE AIR FORCE BASE
         DAVIS-MONTHAN IS DAVIS-MONTHAN AIR FORCE BASE
NAS    - NAVAL AIR STATION
         EL CENTRO NAS IS EL CENTRO NAVAL AIR STATION
N/A    - NOT AVAILABLE





USA.gov is the U.S. government's official web portal to all federal, state and local government web resources and services.